{"data":{"norad_id":62666,"intl_designator":"2025-009BK","name":"FLOCK 4G-1","alt_names":[],"object_type":"PAYLOAD","status":"ACTIVE","operator":null,"country":"US","launch_date":"2025-01-14","launch_site_code":"AFWTR","launch_vehicle":null,"mission":null,"orbit_class":"UNKNOWN","rcs_meters":null,"size_class":null,"mass_kg":null,"dimensions":null,"purposes":["earth_obs"],"wikipedia_slug":null,"has_3d_model":false,"image_url":null,"decayed_at":null,"tle_current":{"epoch":"2026-09-19T12:53:52.160928Z","epoch_age_seconds":97690,"freshness":"FRESH","line1":"1 62666U 25009BK  26262.53740927  .00012418  00000+0  41127-3 0  9990","line2":"2 62666  97.3966 344.2366 0003714   4.2577 355.8695 15.31438508 93344","mean_motion":15.31438508,"eccentricity":0.0003714,"inclination_deg":97.3966,"raan_deg":344.2366,"arg_perigee_deg":4.2577,"mean_anomaly_deg":355.8695,"bstar":0.00041127,"rev_number":9334,"period_min":94.029240643856,"perigee_km":468.97563772233,"apogee_km":474.06356264494,"semimajor_km":6849.6566001836,"source":"CELESTRAK","updated_at":"2026-09-20T09:00:34.722630Z"}}}